Regional Weather Roundup
Issued by NWS Pendleton, OR

Home | Current Version | Previous Version | Text Only | Print | Product List | Glossary On
Versions: 1 2 3 4 5 6 7 8 9 10 11 12 13 14 15 16 17 18 19 20 21 22 23 24 25 26 27 28 29 30 31 32 33 34 35 36 37 38 39 40 41 42 43 44 45 46 47 48 49 50
000
ASUS46 KPDT 301304
RWRPDT
PENDLETON REGIONAL WEATHER ROUNDUP
NATIONAL WEATHER SERVICE PENDLETON OREGON
600 AM PDT THU OCT 30 2014

NOTE: FAIR INDICATES FEW OR NO CLOUDS BELOW 12,000 FEET WITH NO
SIGNIFICANT WEATHER AND/OR OBSTRUCTIONS TO VISIBILITY.

# INDICATES UNOFFICIAL STATION AND DATA

WAZ520-301410-
EAST SLOPES OF WASHINGTON CASCADES

CITY            SKY/WX      TMP DP  RH  WIND    PRES   REMARKS
#BULLFROG       N/A         46  46  100 CALM    N/A
#BULLFROG 2SW   N/A         64  44  48  CALM    29.92S
#BUMPING DAM    N/A         41  N/A N/A N6      N/A
#CLE ELUM HS    N/A         48  45  89  CALM    30.02F
#CLE ELUM 2NW   N/A         47  45  93  E2      N/A
#CLE ELUM LAKE  N/A         N/A N/A N/A S7      30.03F
#CLIFFDEL 2NW   N/A         46  46  100 CALM    N/A
#ELK HTS DOT    N/A         46  46  100 E1      N/A
#MANASTASH CYN  N/A         45  42  89  CALM    30.03F
#NELSON         N/A         46  45  96  CALM    30.09S
#NELSON 3SW     N/A         44  43  96  CALM    30.27F
#NILE           N/A         45  44  96  CALM    29.33F
#PEOH POINT     N/A         43  43  100 E9      N/A
#RONALD 2NW     N/A         46  45  96  N1      29.93F
#SNOWDEN        N/A         47  44  89  CALM    N/A
#TEANAWAY 4NE   N/A         45  45  100 CALM    N/A
#TROUT LAKE HS  N/A         49  49  100 CALM    N/A
#TROUT LAKE 1NE N/A         47  46  96  CALM    30.03F
$$

WAZ521-301410-
SIMCOE HIGHLANDS

CITY            SKY/WX      TMP DP  RH  WIND    PRES   REMARKS
#BICKLETON HS   N/A         48  44  86  CALM    30.15S
#SATUS PASS DOT N/A         46  44  93  CALM    N/A
#CENTERVILLE 4W N/A         50  47  89  E1      29.79S
#CENTERVILLE 1SWN/A         48  46  93  CALM    29.99F
#GOLDENDALE     N/A         50  49  96  S10     N/A
#GOLDENDALE 1NE N/A         50  50  100 E2      N/A
#GOLDENDALE 1S  N/A         49  47  93  CALM    30.01S
#GOLDENDALE 5WNWN/A         48  47  96  CALM    30.02S
#GOODNOE HILLS  N/A         52  51  96  CALM    29.99S
#LYLE 6NE       N/A         50  49  96  CALM    30.01R
$$

WAZ026-301410-
KITTITAS VALLEY

CITY            SKY/WX      TMP DP  RH  WIND    PRES   REMARKS
ELLENSBURG AP   LGT RAIN    50  46  86  CALM    30.07F FOG
#ELLENSBURG CWU N/A         46  45  96  N1      30.04S
#ELLENSBURG 3NE N/A         47  46  96  CALM    30.08S
#ELLENSBURG     N/A         49  49  100 CALM    N/A
#KITTITAS 3S    N/A         45  44  96  CALM    30.09R
#MANASTASH RDG  N/A         47  47  100 CALM    N/A
#ROCKY CYN DOT  N/A         48  47  96  CALM    N/A
#RYEGRASS DOT   N/A         46  45  96  E13     N/A    WCI 40
#THORP 6N       N/A         46  45  96  CALM    30.09F
$$

WAZ027-301410-
YAKIMA VALLEY

CITY            SKY/WX      TMP DP  RH  WIND    PRES   REMARKS
SUNNYSIDE AP    PTCLDY      48  48  100 CALM    30.06S FOG
YAKIMA AIRPORT  LGT RAIN    51  49  93  W5      30.07S FOG
YAKIMA-VAGABOND LGT RAIN SH 49  48  96  S3      30.08S
#COWICHE 1N     N/A         49  46  89  CALM    30.21S
#DONALD 2NE     N/A         51  49  93  CALM    30.38F
#GRANDVIEW      N/A         50  49  96  CALM    30.07S
#MABTON         N/A         51  50  96  CALM    30.06S
#MOXEE 2E       N/A         50  50  100 CALM    30.00R
#NACHES 2SW     N/A         49  48  96  CALM    30.11S
#PARKER DOT     N/A         52  49  89  S5      N/A
#SELAH 8E       N/A         49  47  93  SE6     N/A
#TERRACE HTS    N/A         49  48  96  CALM    30.05R
#TOPPENISH      N/A         50  49  96  CALM    29.98S
#I82 S UMTANUM RN/A         49  46  89  N8      N/A
#UNION GAP DOT  N/A         50  50  100 N1      N/A
#WAPATO 4NE     N/A         51  49  93  CALM    30.38F
#WEST VALLEY    N/A         50  49  96  CALM    30.06S
#W YAKIMA       N/A         50  49  96  CALM    30.06F
#WHITE SWAN 5E  N/A         50  49  96  CALM    30.08S
#WILEY CITY 3W  N/A         49  35  58  CALM    29.96S
#ZILLAH DOT     N/A         50  50  100 CALM    N/A
$$

WAZ028-301410-
LOWER COLUMBIA BASIN...WASHINGTON

CITY            SKY/WX      TMP DP  RH  WIND    PRES   REMARKS
6HR MIN TEMP:   51; 6HR MAX TEMP:   52; 6HR PCP:  TRACE;

PASCO           LGT RAIN    50  49  96  NW3     30.08F
PROSSER AWOS    N/A         50  50  100 SW2     30.09S
RICHLAND AWOS   LGT RAIN    52  50  93  NE3     30.08F
#BASIN CITY 5SW N/A         49  47  93  CALM    30.06F
#CONNELL 5N     N/A         48  46  93  NW1     30.07S
#CONNELL 5NW    N/A         48  46  93  NW3     30.04S
#ELTOPIA 6NW    N/A         48  47  96  N6      29.04R
#KENNEWICK      N/A         64  44  48  CALM    29.92S
#KENNEWICK 3S   N/A         51  49  93  CALM    30.08S
#PASCO-BROADMOORN/A         52  51  96  CALM    29.98S
#PATERSON       N/A         54  49  83  CALM    30.03F
#PROSSER DOT    N/A         51  51  100 S1      N/A
#PROSSER        N/A         51  49  93  CALM    30.06R
#SAGEMOOR 2W    N/A         50  47  89  CALM    29.91F
#TOUCHET 2S     N/A         50  48  93  CALM    30.04F
#WEST PASCO     N/A         52  48  86  CALM    30.09F
$$

WAZ029-301410-
FOOTHILLS OF THE BLUES...WASHINGTON

CITY            SKY/WX      TMP DP  RH  WIND    PRES   REMARKS
WALLA WALLA AP  FOG         50  49  96  S5      30.06R VSB 1/2
#COLLEGE PLACE  N/A         52  47  83  CALM    30.07S
#LOWDEN 2SE     N/A         48  47  96  CALM    30.03S
#PLEASANT VIEW 1N/A         50  46  86  CALM    30.09S
#PRESCOTT       N/A         49  47  93  CALM    30.03S
#SUDBURY        N/A         51  N/A N/A CALM    N/A
#WHITMAN COLLEGEN/A         50  48  93  CALM    30.09S
#WAITSBURG 8N   N/A         53  34  48  N5      30.00S
#WALLA WALLA 5E N/A         61  47  60  CALM    N/A
#WALLA WALLA U  N/A         51  50  96  CALM    30.05S
#WHITMAN MISSIONN/A         50  48  93  CALM    30.06S
$$

WAZ030-301410-
BLUE MOUNTAINS...WASHINGTON

CITY            SKY/WX      TMP DP  RH  WIND    PRES   REMARKS
$$

ORZ009-041-WAZ024-301410-
COLUMBIA RIVER GORGE

CITY            SKY/WX      TMP DP  RH  WIND    PRES   REMARKS
HOOD RIVER AP   RAIN        52  52  100 CALM    30.05R
THE DALLES AP   CLOUDY      54  52  93  CALM    30.04S
#ARLINGTON AIRPON/A         52  50  93  CALM    29.98S
#ARLINGTON HS   N/A         53  50  89  CALM    29.97S
#LYLE           N/A         55  54  96  NE1     30.06R
#MARYHILL       N/A         53  N/A N/A CALM    N/A
#MARYHILL 2W    N/A         54  54  100 CALM    N/A
#MOSIER 1S      N/A         52  51  96  CALM    30.06S
#MURDOCK        N/A         56  55  96  E1      30.06S

$$

ORZ510-301410-
NORTH CENTRAL OREGON

CITY            SKY/WX      TMP DP  RH  WIND    PRES   REMARKS
#CHENOWITH 1W   N/A         50  50  100 E5      N/A
#DUFUR 9E       N/A         49  47  93  E18     30.06F WCI 43
#GRASS VALLEY   N/A         47  47  100 N2      N/A
#GRASS VALLEY 1SN/A         48  46  93  E1      30.05F
#MAUPIN SCHOOL  N/A         52  51  96  CALM    28.92F
#MORO SCHOOL    N/A         49  49  100 CALM    30.06F
#SHANIKO 4NW    N/A         47  45  93  E8      30.04F
#TYGH VALLEY 2NEN/A         52  50  93  CALM    30.03R
#WAPANITIA AIRPON/A         49  48  96  CALM    30.03F
#WASCO 5NE      N/A         49  47  93  CALM    30.04S
$$

ORZ511-301410-
CENTRAL OREGON

CITY            SKY/WX      TMP DP  RH  WIND    PRES   REMARKS
BEND AIRPORT    PTCLDY      48  46  93  S3      30.04F
MADRAS AIRPORT  MOCLDY      46  46  100 CALM    30.05F
PRINEVILLE AP   CLOUDY      50  48  93  E7      30.04F
REDMOND AIRPORT MOCLDY      47  46  96  W5      30.03S
#BEND 6E        N/A         48  45  89  CALM    29.94S
#BEND 1SW       N/A         47  46  96  CALM    N/A
#BEND-KIM LN    N/A         48  47  96  CALM    30.01S
#CULVER         N/A         47  44  89  CALM    30.00S
#LAKE BILLY CHINN/A         47  47  100 CALM    30.09F
#POWELL BUTTE 3EN/A         48  47  96  E7      N/A
#POWELL BUTTE   N/A         52  47  83  S7      29.65F
#PRINEVILLE 3N  N/A         49  47  93  NE6     29.96F
#WARM SPRINGS   N/A         50  48  93  CALM    30.01F


ORZ509-301410-
EAST SLOPES OF OREGON CASCADES

CITY            SKY/WX      TMP DP  RH  WIND    PRES   REMARKS
#CAMP SHERMAN   N/A         44  42  93  CALM    30.02R
#LA PINE 4NW    N/A         44  41  89  CALM    30.06S
#MT BACHELOR-MIDN/A         41  40  96  S20G26  N/A    WCI 32
#SISTERS AIRPOR N/A         44  44  100 CALM    29.91S
#SISTERS 3N     N/A         44  41  89  CALM    30.04F
#SUNRIVER       N/A         46  45  96  CALM    29.90F
#SUNRIVER AP    N/A         45  44  96  CALM    29.98S
#TUMALO 3W      N/A         44  42  93  CALM    29.90S

$$

ORZ044-301410-
LOWER COLUMBIA BASIN...OREGON

CITY            SKY/WX      TMP DP  RH  WIND    PRES   REMARKS
HERMISTON       CLOUDY      52  48  86  CALM    30.05S
#BOARDMAN 8SW   N/A         52  50  93  CALM    30.05S
#IONE SCHOOL    N/A         50  41  71  CALM    30.04F
#IRRIGON 4NW    N/A         53  52  96  CALM    N/A
#UMATILLA SCHOOLN/A         53  53  100 CALM    30.09S
#UMATILLA       N/A         56  49  77  CALM    30.02F
$$

ORZ507-301410-
NORTHERN FOOTHILLS OF THE BLUES

CITY            SKY/WX      TMP DP  RH  WIND    PRES   REMARKS
PENDLETON AIRPT CLOUDY      50  46  86  NW8     30.04R
#ADAMS 3WNW     N/A         51  46  83  NE2     30.02S
#ATHENA         N/A         47  46  96  CALM    30.05S
#CAYUSE         N/A         49  46  89  W3      30.01R
#HELIX SCHOOL   N/A         50  46  86  NW3     30.02S
#HELIX 3N       N/A         48  46  93  N5      30.01S
#HOLDMAN 5SE    N/A         52  47  83  CALM    30.04S
#HOLDMAN 6E     N/A         48  45  89  S9      29.84S
#M-F FERNDALE   N/A         50  47  89  CALM    30.06S
#M-F GROVE ELEM N/A         50  47  89  CALM    30.04S
#M-FREEWATER 5SEN/A         47  44  89  CALM    30.05S
#PENDLETON DNTN N/A         50  44  80  CALM    28.85S
#PDT AQUATIC CTRN/A         49  43  80  CALM    30.09S
#PENDLETON 5NE  N/A         50  45  83  CALM    30.01R
#PDT SUNRIDGE   N/A         48  45  89  CALM    30.05R
#PENDLETON 7NW  N/A         50  45  83  CALM    27.49R
#PILOT ROCK     N/A         49  41  74  S1      30.06R
#TUTUILLA       N/A         47  44  89  CALM    30.04R
#UMAPINE 2E     N/A         50  48  93  CALM    30.03S
#WESTON SCHOOL  N/A         47  44  89  CALM    30.01R

$$

ORZ508-301410-
SOUTHERN FOOTHILLS OF THE BLUES

CITY            SKY/WX      TMP DP  RH  WIND    PRES   REMARKS
LEXINGTON       CLOUDY      48  48  100 E9      30.07F
#AJAX           N/A         50  42  74  CALM    29.98S
#CONDON SCHOOL  N/A         48  45  89  CALM    30.01F
#CONDON 5W      N/A         46  41  83  E5      30.03S
#FOSSIL SCHOOL  N/A         49  46  89  CALM    30.02F
#HEPPNER EOC    N/A         48  44  86  CALM    30.00R
#HEPPNER 4NE    N/A         46  42  86  CALM    30.03S
#MIKKALO        N/A         49  46  89  CALM    30.04S
#OLEX 4N        N/A         50  49  96  CALM    30.05S
#RUGGS 5NE      N/A         47  44  89  CALM    30.20S
#RUGGS 2SW      N/A         48  43  83  SE5     30.05F

$$

ORZ502-503-301410-
BLUE MOUNTAINS

CITY            SKY/WX      TMP DP  RH  WIND    PRES   REMARKS
MEACHAM         CLOUDY      50  40  68  CALM    30.08S
#HARDMAN 10S    N/A         45  41  86  CALM    30.13S
#HEPPNER 15SE   N/A         49  44  83  CALM    29.99R
#PIKES PEAK     N/A         57  40  53  S22     27.99S
#TOLLGATE       N/A         46  39  76  SW2     30.03S
#TROY SCHOOL    N/A         44  41  89  CALM    30.01S
#UKIAH          N/A         40  39  96  CALM    30.11R
#WESTON 4E      N/A         54  41  61  E14     29.96F
$$

ORZ505-301410-
JOHN DAY BASIN

CITY            SKY/WX      TMP DP  RH  WIND    PRES   REMARKS
JOHN DAY        MOCLDY      53  40  61  E3      30.08S
#JOHN DAY KJDY  N/A         48  43  83  CALM    30.16F
#DAYVILLE SCHOOLN/A         49  43  80  N1      30.04S
#MT. VERNON 5SE N/A         53  39  59  N1      30.04S
#WINLOCK        N/A         48  46  93  CALM    30.14F
$$

ORZ506-301410-
OCHOCO AND JOHN DAY HIGHLANDS

CITY            SKY/WX      TMP DP  RH  WIND    PRES   REMARKS
#PAULINA SCHOOL N/A         43  40  89  CALM    30.07S
#PINE MTN OBS   N/A         46  39  76  S10     N/A
#PRAIRIE CITY   N/A         42  38  86  CALM    30.16F
#SENECA         N/A         44  N/A N/A CALM    N/A
#SENECA 9NW     N/A         40  39  96  CALM    30.09S
$$

ORZ049-301410-
GRANDE RONDE VALLEY

CITY            SKY/WX      TMP DP  RH  WIND    PRES   REMARKS
LA GRANDE       CLOUDY      50  37  61  NE7     30.10S
#COVE           N/A         48  42  80  CALM    30.03S
#COVE SCHOOL    N/A         48  42  80  CALM    30.08S
#COVE 6NW       N/A         45  40  82  CALM    30.13F
#ELGIN 3N       N/A         41  39  93  CALM    29.84F
#ELGIN 1E       N/A         43  39  86  CALM    N/A
#IMBLER SCHOOL  N/A         63  35  35  SW3     29.84S
#ISLAND CITY 4N N/A         54  53  96  CALM    29.90R
#UNION 1S       N/A         51  41  68  S6      29.98F
$$

ORZ050-301410-
WALLOWA COUNTY

CITY            SKY/WX      TMP DP  RH  WIND    PRES   REMARKS
#ENTERPRISE AP  N/A         40  35  82  CALM    30.05F
#ENTERPRISE HS  N/A         40  38  92  CALM    30.13S
#IMNAHA 10S     N/A         46  40  79  NW1     30.11F
#JOSEPH 3N      N/A         39  39  100 CALM    30.11F
#JOSEPH 3W      N/A         42  39  89  CALM    29.95F
#LOSTINE        N/A         39  38  96  CALM    29.94F
#MT HOWARD 8000 N/A         40  29  64  S13     30.19S WCI 32
#PROMISE 1S     N/A         41  38  89  CALM    30.23R
#SHEEP RDG 7000 N/A         44  32  62  CALM    30.13F
#WALLOWA SCHOOL N/A         39  38  96  CALM    31.10S



$$



USA.gov is the U.S. government's official web portal to all federal, state and local government web resources and services.